Location: Noyers
(47.2770°N, 1.4032°E)
Time: 00:45:49
(UTC+00:00)

Cosmos 1634 Rocket - Pass Details

Date: 15 May 2026
Orbit: 960 x 990 km, 82.9° (Epoch: 9 June)

Event Time Altitude Azimuth Distance (km) Brightness Sun altitude
Exits shadow 22:22:33 38° 167° (SSE) 1,429 4.3 -20.8°
Maximum altitude 22:25:00 71° 95° (E) 1,020 3.9 -20.9°
Drops below altitude 10° 22:31:11 10° 13° (NNE) 2,720 7.1 -21.3°
Sets 22:33:43 0° 11° (N) 3,675 8.0 -21.5°
